logo tempoitalia

Diretta Meteo Valencia, Spagnavenerdì 19 luglio ore 06:30

Mappa
Sereno 24 °C Sereno 24 Ore: T.min 23 T.max 31
Ponente Ovest/Nord-Ovest Km/h 7.4 Punto di rugiada: 21 °C Umidità: 83% Visibilità: 10 Km
Il sole sorge alle: 06:49 Il sole tramonta alle: 21:27
19 Luglio 2024 06:30 tempo osservato: Sereno Sereno 24 83 1017 vento: Nord O/NO 7.4
19 Luglio 2024 06:00 tempo osservato: Sereno Sereno 24 83 1016 vento: Nord N 3.7
19 Luglio 2024 05:30 tempo osservato: Sereno Sereno 24 83 1016 vento: Nord N 3.7
19 Luglio 2024 05:00 tempo osservato: Sereno Sereno 24 83 1017 vento: Nord N 3.7
19 Luglio 2024 04:30 tempo osservato: Sereno Sereno 25 78 1017 vento: Nord N 5.5
19 Luglio 2024 04:00 tempo osservato: Sereno Sereno 25 83 1017 vento: Nord O 7.4
19 Luglio 2024 03:30 tempo osservato: Sereno Sereno 26 78 1017 vento: Nord S/SO 7.4
19 Luglio 2024 03:00 tempo osservato: Sereno Sereno 26 78 1018 vento: Nord N 5.5
19 Luglio 2024 02:30 tempo osservato: Sereno Sereno 26 78 1018 vento: Nord O 7.4
19 Luglio 2024 02:00 tempo osservato: Pioggia Pioggia 26 78 1018 vento: Nord N 7.4
19 Luglio 2024 01:30 tempo osservato: Sereno Sereno 27 74 1018 vento: Nord N 3.7
19 Luglio 2024 01:00 tempo osservato: Sereno Sereno 27 74 1018 vento: Nord N 3.7
19 Luglio 2024 00:30 tempo osservato: Sereno Sereno 27 74 1018 vento: Nord N 5.5
19 Luglio 2024 00:00 tempo osservato: Sereno Sereno 27 74 1019 vento: Nord E 7.4
18 Luglio 2024 23:30 tempo osservato: Sereno Sereno 27 74 1019 vento: Nord E/NE 9.3
18 Luglio 2024 23:00 tempo osservato: Sereno Sereno 27 69 1019 vento: Nord E/NE 9.3
18 Luglio 2024 22:30 tempo osservato: Sereno Sereno 27 69 1018 vento: Nord N 9.3
18 Luglio 2024 22:00 tempo osservato: Sereno Sereno 27 69 1018 vento: Nord E 11.1
18 Luglio 2024 21:30 tempo osservato: Sereno Sereno 27 69 1017 vento: Nord E 11.1
18 Luglio 2024 21:00 tempo osservato: Sereno Sereno 27 65 1017 vento: Nord E 11.1
18 Luglio 2024 20:30 tempo osservato: Sereno Sereno 28 65 1017 vento: Nord E/NE 11.1
18 Luglio 2024 20:00 tempo osservato: Sereno Sereno 28 65 1017 vento: Nord E/NE 13
18 Luglio 2024 19:30 tempo osservato: Sereno Sereno 28 65 1017 vento: Nord E/NE 16.7
18 Luglio 2024 19:00 tempo osservato: Sereno Sereno 29 62 1017 vento: Nord E/NE 14.8
18 Luglio 2024 18:30 tempo osservato: Sereno Sereno 29 58 1017 vento: Nord E/NE 16.7
18 Luglio 2024 18:00 tempo osservato: Sereno Sereno 30 55 1017 vento: Nord E/NE 18.5
18 Luglio 2024 17:30 tempo osservato: Sereno Sereno 31 48 1017 vento: Nord E 18.5
18 Luglio 2024 17:00 tempo osservato: Sereno Sereno 30 51 1017 vento: Nord E/SE 18.5
18 Luglio 2024 16:30 tempo osservato: Sereno Sereno 31 45 1017 vento: Nord E/SE 18.5
18 Luglio 2024 16:00 tempo osservato: Sereno Sereno 31 48 1017 vento: Nord E/SE 14.8
18 Luglio 2024 15:30 tempo osservato: Sereno Sereno 30 51 1017 vento: Nord E 16.7
18 Luglio 2024 15:00 tempo osservato: Sereno Sereno 31 52 1018 vento: Nord E/SE 16.7
18 Luglio 2024 14:30 tempo osservato: Sereno Sereno 30 51 1018 vento: Nord E/SE 16.7
18 Luglio 2024 14:00 tempo osservato: Sereno Sereno 31 52 1018 vento: Nord E/SE 18.5
18 Luglio 2024 13:30 tempo osservato: Sereno Sereno 29 58 1018 vento: Nord E/SE 18.5
18 Luglio 2024 13:00 tempo osservato: Sereno Sereno 30 55 1018 vento: Nord E/SE 18.5
18 Luglio 2024 12:30 tempo osservato: Sereno Sereno 30 55 1018 vento: Nord SE 16.7
18 Luglio 2024 12:00 tempo osservato: Sereno Sereno 29 58 1018 vento: Nord SE 11.1
18 Luglio 2024 11:30 tempo osservato: Sereno Sereno 29 62 1018 vento: Nord SE 13
18 Luglio 2024 11:00 tempo osservato: Sereno Sereno 29 58 1018 vento: Nord SE 11.1
18 Luglio 2024 10:30 tempo osservato: Sereno Sereno 28 61 1018 vento: Nord N 5.5
18 Luglio 2024 10:00 tempo osservato: Sereno Sereno 28 65 1018 vento: Nord N 1.8
18 Luglio 2024 09:30 tempo osservato: Sereno Sereno 26 69 1018 vento: Nord N 3.7
18 Luglio 2024 09:00 tempo osservato: Sereno Sereno 25 73 1018 vento: Nord N 5.5
18 Luglio 2024 08:30 tempo osservato: Sereno Sereno 24 78 1018 vento: Nord N 5.5
18 Luglio 2024 08:00 tempo osservato: Sereno Sereno 23 83 1018 vento: Nord N 5.5